Terminal Aerodrome Forecast
Issued by NWS Boston, MA

Home | Current Version | Previous Version | Text Only | Print | Product List | Glossary On
Versions: 1 2 3 4 5 6 7 8 9 10 11 12 13 14 15 16 17 18 19 20 21 22 23 24 25 26 27 28 29 30 31 32 33 34 35 36 37 38 39 40 41 42 43 44 45 46 47 48 49
000
FTUS41 KBOX 182342
TAFBOS
TAF
KBOS 182342Z 1900/2006 29011KT P6SM SCT040
     FM190800 30010G18KT P6SM SCT150
     FM191400 31010KT P6SM SCT050
     FM191500 32010KT P6SM BKN050
     FM200200 34006KT P6SM BKN050=

USA.gov is the U.S. government's official web portal to all federal, state and local government web resources and services.